Wetterdaten: aktuell Donnerstag, 29.02.2024 04:13
Datum Zeit Temp. Feuchte A. Luftdruck Regen Wind Richtung Richtung Taupunkt Windben
29.02.2024 04:13 -2,3 C 86 % 1020,1 hPa 0,0 mm 0,0 km/h (0 Bft) N 0 -4,3 C 0,0 km/h (0 Bft)
29.02.2024 04:12 -2,3 C 87 % 1020,1 hPa 0,0 mm 0,0 km/h (0 Bft) N 0 -4,2 C 0,0 km/h (0 Bft)
29.02.2024 04:11 -2,3 C 87 % 1020,1 hPa 0,0 mm 0,0 km/h (0 Bft) O-NO 67 -4,2 C 1,6 km/h (1 Bft)
29.02.2024 04:10 -2,3 C 87 % 1020,1 hPa 0,0 mm 0,0 km/h (0 Bft) N 0 -4,2 C 0,0 km/h (0 Bft)
29.02.2024 04:09 -2,3 C 87 % 1020,2 hPa 0,0 mm 0,0 km/h (0 Bft) N 0 -4,2 C 0,0 km/h (0 Bft)
29.02.2024 04:08 -2,3 C 87 % 1020,2 hPa 0,0 mm 0,0 km/h (0 Bft) N 0 -4,2 C 0,0 km/h (0 Bft)
29.02.2024 04:07 -2,3 C 87 % 1020,2 hPa 0,0 mm 0,0 km/h (0 Bft) N 0 -4,2 C 0,0 km/h (0 Bft)
29.02.2024 04:06 -2,3 C 87 % 1020,2 hPa 0,0 mm 0,0 km/h (0 Bft) N 0 -4,2 C 0,0 km/h (0 Bft)
29.02.2024 04:05 -2,2 C 87 % 1020,2 hPa 0,0 mm 0,0 km/h (0 Bft) N 0 -4,1 C 0,0 km/h (0 Bft)
29.02.2024 04:04 -2,2 C 86 % 1020,3 hPa 0,0 mm 0,0 km/h (0 Bft) N 0 -4,2 C 0,0 km/h (0 Bft)
29.02.2024 04:03 -2,2 C 86 % 1020,2 hPa 0,0 mm 0,0 km/h (0 Bft) N 0 -4,2 C 0,0 km/h (0 Bft)
29.02.2024 04:02 -2,2 C 86 % 1020,2 hPa 0,0 mm 0,0 km/h (0 Bft) N 0 -4,2 C 0,0 km/h (0 Bft)
29.02.2024 04:01 -2,2 C 86 % 1020,2 hPa 0,0 mm 0,0 km/h (0 Bft) N 0 -4,2 C 0,0 km/h (0 Bft)
29.02.2024 04:00 -2,2 C 87 % 1020,2 hPa 0,0 mm 0,0 km/h (0 Bft) N 0 -4,1 C 0,0 km/h (0 Bft)
29.02.2024 03:59 -2,2 C 87 % 1020,3 hPa 0,0 mm 0,0 km/h (0 Bft) N 0 -4,1 C 0,0 km/h (0 Bft)
29.02.2024 03:58 -2,2 C 87 % 1020,3 hPa 0,0 mm 0,0 km/h (0 Bft) N 0 -4,1 C 0,0 km/h (0 Bft)
29.02.2024 03:57 -2,2 C 87 % 1020,3 hPa 0,0 mm 0,0 km/h (0 Bft) N 0 -4,1 C 0,0 km/h (0 Bft)
29.02.2024 03:56 -2,2 C 87 % 1020,4 hPa 0,0 mm 0,0 km/h (0 Bft) N 0 -4,1 C 0,0 km/h (0 Bft)
29.02.2024 03:55 -2,2 C 87 % 1020,3 hPa 0,0 mm 0,0 km/h (0 Bft) N 0 -4,1 C 0,0 km/h (0 Bft)
29.02.2024 03:54 -2,2 C 87 % 1020,4 hPa 0,0 mm 0,0 km/h (0 Bft) N 0 -4,1 C 0,0 km/h (0 Bft)
29.02.2024 03:53 -2,2 C 87 % 1020,4 hPa 0,0 mm 0,0 km/h (0 Bft) N 0 -4,1 C 0,0 km/h (0 Bft)
29.02.2024 03:52 -2,1 C 87 % 1020,3 hPa 0,0 mm 0,0 km/h (0 Bft) N 0 -4,0 C 0,0 km/h (0 Bft)
29.02.2024 03:51 -2,1 C 87 % 1020,4 hPa 0,0 mm 0,0 km/h (0 Bft) N 0 -4,0 C 0,0 km/h (0 Bft)
29.02.2024 03:50 -2,1 C 87 % 1020,4 hPa 0,0 mm 0,0 km/h (0 Bft) N 0 -4,0 C 0,0 km/h (0 Bft)
29.02.2024 03:49 -2,1 C 87 % 1020,3 hPa 0,0 mm 0,0 km/h (0 Bft) N 0 -4,0 C 0,0 km/h (0 Bft)
29.02.2024 03:48 -2,1 C 87 % 1020,3 hPa 0,0 mm 0,0 km/h (0 Bft) N 0 -4,0 C 0,0 km/h (0 Bft)
29.02.2024 03:47 -2,1 C 86 % 1020,4 hPa 0,0 mm 0,0 km/h (0 Bft) N 0 -4,1 C 0,0 km/h (0 Bft)
29.02.2024 03:46 -2,0 C 86 % 1020,4 hPa 0,0 mm 0,0 km/h (0 Bft) N 0 -4,0 C 0,0 km/h (0 Bft)
29.02.2024 03:45 -2,0 C 86 % 1020,5 hPa 0,0 mm 0,0 km/h (0 Bft) N 0 -4,0 C 0,0 km/h (0 Bft)
29.02.2024 03:44 -2,1 C 86 % 1020,4 hPa 0,0 mm 0,0 km/h (0 Bft) N 0 -4,1 C 0,0 km/h (0 Bft)
29.02.2024 03:43 -2,1 C 87 % 1020,6 hPa 0,0 mm 0,0 km/h (0 Bft) N 0 -4,0 C 0,0 km/h (0 Bft)
29.02.2024 03:42 -2,1 C 87 % 1020,6 hPa 0,0 mm 0,0 km/h (0 Bft) N 0 -4,0 C 0,0 km/h (0 Bft)
29.02.2024 03:41 -2,1 C 87 % 1020,6 hPa 0,0 mm 0,0 km/h (0 Bft) N 0 -4,0 C 0,0 km/h (0 Bft)
29.02.2024 03:40 -2,1 C 87 % 1020,5 hPa 0,0 mm 0,0 km/h (0 Bft) N 0 -4,0 C 0,0 km/h (0 Bft)
29.02.2024 03:39 -2,1 C 87 % 1020,6 hPa 0,0 mm 0,0 km/h (0 Bft) N 0 -4,0 C 0,0 km/h (0 Bft)
29.02.2024 03:38 -2,1 C 87 % 1020,6 hPa 0,0 mm 0,0 km/h (0 Bft) O-NO 67 -4,0 C 3,2 km/h (1 Bft)
29.02.2024 03:37 -2,1 C 87 % 1020,5 hPa 0,0 mm 0,0 km/h (0 Bft) N 0 -4,0 C 0,0 km/h (0 Bft)
29.02.2024 03:36 -2,1 C 87 % 1020,6 hPa 0,0 mm 0,0 km/h (0 Bft) N 0 -4,0 C 0,0 km/h (0 Bft)
29.02.2024 03:35 -2,1 C 87 % 1020,6 hPa 0,0 mm 0,0 km/h (0 Bft) N 0 -4,0 C 0,0 km/h (0 Bft)
29.02.2024 03:34 -2,1 C 87 % 1020,6 hPa 0,0 mm 0,0 km/h (0 Bft) N 0 -4,0 C 0,0 km/h (0 Bft)
29.02.2024 03:33 -2,1 C 87 % 1020,6 hPa 0,0 mm 0,0 km/h (0 Bft) N 0 -4,0 C 0,0 km/h (0 Bft)
29.02.2024 03:32 -2,1 C 87 % 1020,7 hPa 0,0 mm 0,0 km/h (0 Bft) N 0 -4,0 C 0,0 km/h (0 Bft)
29.02.2024 03:31 -2,1 C 87 % 1020,7 hPa 0,0 mm 0,0 km/h (0 Bft) O 90 -4,0 C 1,6 km/h (1 Bft)
29.02.2024 03:30 -2,1 C 87 % 1020,7 hPa 0,0 mm 0,0 km/h (0 Bft) N 0 -4,0 C 0,0 km/h (0 Bft)
29.02.2024 03:29 -2,1 C 87 % 1020,8 hPa 0,0 mm 0,0 km/h (0 Bft) O 90 -4,0 C 1,6 km/h (1 Bft)
29.02.2024 03:28 -2,0 C 87 % 1020,7 hPa 0,0 mm 0,0 km/h (0 Bft) N 0 -3,9 C 0,0 km/h (0 Bft)
29.02.2024 03:27 -2,0 C 87 % 1020,7 hPa 0,0 mm 0,0 km/h (0 Bft) O 90 -3,9 C 1,6 km/h (1 Bft)
29.02.2024 03:26 -2,0 C 87 % 1020,7 hPa 0,0 mm 0,0 km/h (0 Bft) N 0 -3,9 C 0,0 km/h (0 Bft)
29.02.2024 03:25 -1,9 C 87 % 1020,8 hPa 0,0 mm 0,0 km/h (0 Bft) N 0 -3,8 C 0,0 km/h (0 Bft)
29.02.2024 03:24 -1,9 C 87 % 1020,7 hPa 0,0 mm 0,0 km/h (0 Bft) N 0 -3,8 C 0,0 km/h (0 Bft)
29.02.2024 03:23 -1,9 C 87 % 1020,7 hPa 0,0 mm 0,0 km/h (0 Bft) N 0 -3,8 C 0,0 km/h (0 Bft)
29.02.2024 03:22 -1,9 C 87 % 1020,7 hPa 0,0 mm 0,0 km/h (0 Bft) N 0 -3,8 C 0,0 km/h (0 Bft)
29.02.2024 03:21 -1,9 C 87 % 1020,7 hPa 0,0 mm 0,0 km/h (0 Bft) N 0 -3,8 C 0,0 km/h (0 Bft)
29.02.2024 03:20 -1,9 C 87 % 1020,7 hPa 0,0 mm 0,0 km/h (0 Bft) N 0 -3,8 C 0,0 km/h (0 Bft)
29.02.2024 03:19 -1,9 C 87 % 1020,7 hPa 0,0 mm 0,0 km/h (0 Bft) N 0 -3,8 C 0,0 km/h (0 Bft)
29.02.2024 03:18 -1,9 C 87 % 1020,7 hPa 0,0 mm 0,0 km/h (0 Bft) O 90 -3,8 C 1,6 km/h (1 Bft)
29.02.2024 03:17 -1,9 C 87 % 1020,7 hPa 0,0 mm 0,0 km/h (0 Bft) N 0 -3,8 C 0,0 km/h (0 Bft)
29.02.2024 03:16 -1,9 C 87 % 1020,8 hPa 0,0 mm 0,0 km/h (0 Bft) O 90 -3,8 C 1,6 km/h (1 Bft)
29.02.2024 03:15 -1,9 C 87 % 1020,8 hPa 0,0 mm 0,0 km/h (0 Bft) O 90 -3,8 C 1,6 km/h (1 Bft)
29.02.2024 03:14 -1,9 C 87 % 1020,8 hPa 0,0 mm 0,0 km/h (0 Bft) N 0 -3,8 C 0,0 km/h (0 Bft)
29.02.2024 03:13 -1,9 C 87 % 1020,8 hPa 0,0 mm 0,0 km/h (0 Bft) O 90 -3,8 C 1,6 km/h (1 Bft)
29.02.2024 03:12 -1,9 C 87 % 1020,8 hPa 0,0 mm 0,0 km/h (0 Bft) N 0 -3,8 C 0,0 km/h (0 Bft)
29.02.2024 03:11 -1,9 C 87 % 1020,8 hPa 0,0 mm 0,0 km/h (0 Bft) N 0 -3,8 C 0,0 km/h (0 Bft)
29.02.2024 03:10 -1,9 C 87 % 1020,8 hPa 0,0 mm 0,0 km/h (0 Bft) O 90 -3,8 C 1,6 km/h (1 Bft)
29.02.2024 03:09 -1,9 C 87 % 1020,8 hPa 0,0 mm 0,0 km/h (0 Bft) N 0 -3,8 C 0,0 km/h (0 Bft)
29.02.2024 03:08 -1,9 C 87 % 1020,8 hPa 0,0 mm 0,0 km/h (0 Bft) N 0 -3,8 C 0,0 km/h (0 Bft)
29.02.2024 03:07 -1,9 C 87 % 1020,9 hPa 0,0 mm 0,0 km/h (0 Bft) O 90 -3,8 C 1,6 km/h (1 Bft)
29.02.2024 03:06 -1,9 C 87 % 1020,8 hPa 0,0 mm 0,0 km/h (0 Bft) N 0 -3,8 C 0,0 km/h (0 Bft)
29.02.2024 03:05 -1,9 C 86 % 1020,8 hPa 0,0 mm 0,0 km/h (0 Bft) N 0 -3,9 C 0,0 km/h (0 Bft)
29.02.2024 03:04 -1,9 C 86 % 1020,8 hPa 0,0 mm 0,0 km/h (0 Bft) N 0 -3,9 C 0,0 km/h (0 Bft)
29.02.2024 03:03 -1,9 C 86 % 1020,8 hPa 0,0 mm 0,0 km/h (0 Bft) O 90 -3,9 C 1,6 km/h (1 Bft)
29.02.2024 03:02 -1,9 C 86 % 1020,9 hPa 0,0 mm 0,0 km/h (0 Bft) N 0 -3,9 C 0,0 km/h (0 Bft)
29.02.2024 03:01 -1,9 C 87 % 1020,9 hPa 0,0 mm 0,0 km/h (0 Bft) O 90 -3,8 C 1,6 km/h (1 Bft)
29.02.2024 03:00 -1,9 C 86 % 1020,9 hPa 0,0 mm 0,0 km/h (0 Bft) O 90 -3,9 C 1,6 km/h (1 Bft)
29.02.2024 02:59 -2,0 C 86 % 1021,0 hPa 0,0 mm 0,0 km/h (0 Bft) O 90 -4,0 C 1,6 km/h (1 Bft)
29.02.2024 02:58 -2,0 C 87 % 1021,0 hPa 0,0 mm 1,6 km/h (1 Bft) O-NO 67 -3,9 C 1,6 km/h (1 Bft)
29.02.2024 02:57 -2,0 C 87 % 1020,9 hPa 0,0 mm 0,0 km/h (0 Bft) O 90 -3,9 C 1,6 km/h (1 Bft)
29.02.2024 02:56 -2,0 C 87 % 1021,0 hPa 0,0 mm 0,0 km/h (0 Bft) O 90 -3,9 C 1,6 km/h (1 Bft)
29.02.2024 02:55 -2,0 C 87 % 1021,0 hPa 0,0 mm 0,0 km/h (0 Bft) N 0 -3,9 C 0,0 km/h (0 Bft)
29.02.2024 02:54 -2,0 C 87 % 1020,9 hPa 0,0 mm 0,0 km/h (0 Bft) N 0 -3,9 C 0,0 km/h (0 Bft)
29.02.2024 02:53 -2,1 C 87 % 1021,0 hPa 0,0 mm 0,0 km/h (0 Bft) O 90 -4,0 C 1,6 km/h (1 Bft)
29.02.2024 02:52 -2,1 C 87 % 1021,0 hPa 0,0 mm 0,0 km/h (0 Bft) N 0 -4,0 C 0,0 km/h (0 Bft)
29.02.2024 02:51 -2,1 C 87 % 1021,0 hPa 0,0 mm 0,0 km/h (0 Bft) N 0 -4,0 C 0,0 km/h (0 Bft)
29.02.2024 02:50 -2,1 C 87 % 1020,9 hPa 0,0 mm 0,0 km/h (0 Bft) N 0 -4,0 C 0,0 km/h (0 Bft)
29.02.2024 02:49 -2,1 C 87 % 1021,1 hPa 0,0 mm 0,0 km/h (0 Bft) N 0 -4,0 C 0,0 km/h (0 Bft)
29.02.2024 02:48 -2,1 C 87 % 1021,0 hPa 0,0 mm 0,0 km/h (0 Bft) O-NO 67 -4,0 C 1,6 km/h (1 Bft)
29.02.2024 02:47 -2,1 C 87 % 1021,1 hPa 0,0 mm 0,0 km/h (0 Bft) O-NO 67 -4,0 C 1,6 km/h (1 Bft)
29.02.2024 02:46 -2,1 C 87 % 1021,1 hPa 0,0 mm 0,0 km/h (0 Bft) NO 45 -4,0 C 1,6 km/h (1 Bft)
29.02.2024 02:45 -2,1 C 87 % 1021,0 hPa 0,0 mm 0,0 km/h (0 Bft) NO 45 -4,0 C 1,6 km/h (1 Bft)
29.02.2024 02:44 -2,2 C 87 % 1021,0 hPa 0,0 mm 0,0 km/h (0 Bft) N 0 -4,1 C 0,0 km/h (0 Bft)
29.02.2024 02:43 -2,2 C 87 % 1021,0 hPa 0,0 mm 0,0 km/h (0 Bft) N 0 -4,1 C 0,0 km/h (0 Bft)
29.02.2024 02:42 -2,2 C 87 % 1021,1 hPa 0,0 mm 0,0 km/h (0 Bft) N 0 -4,1 C 0,0 km/h (0 Bft)
29.02.2024 02:41 -2,2 C 87 % 1021,0 hPa 0,0 mm 0,0 km/h (0 Bft) N 0 -4,1 C 0,0 km/h (0 Bft)
29.02.2024 02:40 -2,3 C 87 % 1021,0 hPa 0,0 mm 0,0 km/h (0 Bft) N 0 -4,2 C 0,0 km/h (0 Bft)
29.02.2024 02:39 -2,3 C 87 % 1021,0 hPa 0,0 mm 0,0 km/h (0 Bft) N 0 -4,2 C 0,0 km/h (0 Bft)
29.02.2024 02:38 -2,3 C 87 % 1020,9 hPa 0,0 mm 0,0 km/h (0 Bft) N 0 -4,2 C 0,0 km/h (0 Bft)
29.02.2024 02:37 -2,4 C 87 % 1020,9 hPa 0,0 mm 0,0 km/h (0 Bft) N 0 -4,3 C 0,0 km/h (0 Bft)
29.02.2024 02:36 -2,4 C 87 % 1021,0 hPa 0,0 mm 0,0 km/h (0 Bft) N 0 -4,3 C 0,0 km/h (0 Bft)
29.02.2024 02:35 -2,4 C 87 % 1021,0 hPa 0,0 mm 0,0 km/h (0 Bft) N 0 -4,3 C 0,0 km/h (0 Bft)
29.02.2024 02:34 -2,5 C 87 % 1021,0 hPa 0,0 mm 0,0 km/h (0 Bft) N 0 -4,4 C 0,0 km/h (0 Bft)
29.02.2024 02:33 -2,5 C 87 % 1021,0 hPa 0,0 mm 0,0 km/h (0 Bft) N 0 -4,4 C 0,0 km/h (0 Bft)
29.02.2024 02:32 -2,5 C 87 % 1021,0 hPa 0,0 mm 0,0 km/h (0 Bft) N 0 -4,4 C 0,0 km/h (0 Bft)
29.02.2024 02:31 -2,5 C 87 % 1021,0 hPa 0,0 mm 0,0 km/h (0 Bft) N 0 -4,4 C 0,0 km/h (0 Bft)
29.02.2024 02:30 -2,5 C 87 % 1021,0 hPa 0,0 mm 0,0 km/h (0 Bft) N 0 -4,4 C 0,0 km/h (0 Bft)
29.02.2024 02:29 -2,4 C 87 % 1021,0 hPa 0,0 mm 0,0 km/h (0 Bft) N 0 -4,3 C 0,0 km/h (0 Bft)
29.02.2024 02:28 -2,4 C 87 % 1021,0 hPa 0,0 mm 0,0 km/h (0 Bft) N 0 -4,3 C 0,0 km/h (0 Bft)
29.02.2024 02:27 -2,4 C 87 % 1021,1 hPa 0,0 mm 0,0 km/h (0 Bft) N 0 -4,3 C 0,0 km/h (0 Bft)
29.02.2024 02:26 -2,4 C 87 % 1021,1 hPa 0,0 mm 0,0 km/h (0 Bft) N 0 -4,3 C 0,0 km/h (0 Bft)
29.02.2024 02:25 -2,4 C 87 % 1021,1 hPa 0,0 mm 0,0 km/h (0 Bft) N 0 -4,3 C 0,0 km/h (0 Bft)
29.02.2024 02:24 -2,4 C 87 % 1021,1 hPa 0,0 mm 0,0 km/h (0 Bft) N 0 -4,3 C 0,0 km/h (0 Bft)
29.02.2024 02:23 -2,4 C 87 % 1021,1 hPa 0,0 mm 0,0 km/h (0 Bft) N 0 -4,3 C 0,0 km/h (0 Bft)
29.02.2024 02:22 -2,4 C 87 % 1021,1 hPa 0,0 mm 0,0 km/h (0 Bft) N 0 -4,3 C 0,0 km/h (0 Bft)
29.02.2024 02:21 -2,4 C 87 % 1021,1 hPa 0,0 mm 0,0 km/h (0 Bft) N 0 -4,3 C 0,0 km/h (0 Bft)
29.02.2024 02:20 -2,4 C 87 % 1021,2 hPa 0,0 mm 0,0 km/h (0 Bft) N 0 -4,3 C 0,0 km/h (0 Bft)
29.02.2024 02:19 -2,4 C 87 % 1021,2 hPa 0,0 mm 0,0 km/h (0 Bft) N 0 -4,3 C 0,0 km/h (0 Bft)
29.02.2024 02:18 -2,4 C 87 % 1021,2 hPa 0,0 mm 0,0 km/h (0 Bft) N 0 -4,3 C 0,0 km/h (0 Bft)
29.02.2024 02:17 -2,4 C 87 % 1021,2 hPa 0,0 mm 0,0 km/h (0 Bft) N 0 -4,3 C 0,0 km/h (0 Bft)
29.02.2024 02:16 -2,4 C 87 % 1021,2 hPa 0,0 mm 0,0 km/h (0 Bft) N 0 -4,3 C 0,0 km/h (0 Bft)
29.02.2024 02:15 -2,4 C 87 % 1021,2 hPa 0,0 mm 0,0 km/h (0 Bft) N 0 -4,3 C 0,0 km/h (0 Bft)
29.02.2024 02:14 -2,4 C 87 % 1021,2 hPa 0,0 mm 0,0 km/h (0 Bft) N 0 -4,3 C 0,0 km/h (0 Bft)
29.02.2024 02:13 -2,4 C 87 % 1021,2 hPa 0,0 mm 0,0 km/h (0 Bft) N 0 -4,3 C 0,0 km/h (0 Bft)
29.02.2024 02:12 -2,4 C 87 % 1021,2 hPa 0,0 mm 0,0 km/h (0 Bft) N 0 -4,3 C 0,0 km/h (0 Bft)
29.02.2024 02:11 -2,4 C 87 % 1021,2 hPa 0,0 mm 0,0 km/h (0 Bft) N 0 -4,3 C 0,0 km/h (0 Bft)
29.02.2024 02:10 -2,3 C 87 % 1021,3 hPa 0,0 mm 0,0 km/h (0 Bft) N 0 -4,2 C 0,0 km/h (0 Bft)
29.02.2024 02:09 -2,3 C 87 % 1021,2 hPa 0,0 mm 0,0 km/h (0 Bft) N 0 -4,2 C 0,0 km/h (0 Bft)
29.02.2024 02:08 -2,3 C 87 % 1021,3 hPa 0,0 mm 0,0 km/h (0 Bft) N 0 -4,2 C 0,0 km/h (0 Bft)
29.02.2024 02:07 -2,3 C 87 % 1021,3 hPa 0,0 mm 0,0 km/h (0 Bft) N 0 -4,2 C 0,0 km/h (0 Bft)
29.02.2024 02:06 -2,2 C 87 % 1021,3 hPa 0,0 mm 0,0 km/h (0 Bft) N 0 -4,1 C 0,0 km/h (0 Bft)
29.02.2024 02:05 -2,2 C 87 % 1021,3 hPa 0,0 mm 0,0 km/h (0 Bft) N 0 -4,1 C 0,0 km/h (0 Bft)
29.02.2024 02:04 -2,2 C 87 % 1021,3 hPa 0,0 mm 0,0 km/h (0 Bft) N 0 -4,1 C 0,0 km/h (0 Bft)
29.02.2024 02:03 -2,2 C 87 % 1021,3 hPa 0,0 mm 0,0 km/h (0 Bft) N 0 -4,1 C 0,0 km/h (0 Bft)
29.02.2024 02:02 -2,1 C 87 % 1021,3 hPa 0,0 mm 0,0 km/h (0 Bft) N 0 -4,0 C 0,0 km/h (0 Bft)
29.02.2024 02:01 -2,1 C 87 % 1021,4 hPa 0,0 mm 0,0 km/h (0 Bft) N 0 -4,0 C 0,0 km/h (0 Bft)
29.02.2024 02:00 -2,1 C 87 % 1021,4 hPa 0,0 mm 0,0 km/h (0 Bft) N 0 -4,0 C 0,0 km/h (0 Bft)
29.02.2024 01:59 -2,1 C 87 % 1021,4 hPa 0,0 mm 0,0 km/h (0 Bft) N 0 -4,0 C 0,0 km/h (0 Bft)
29.02.2024 01:58 -2,1 C 87 % 1021,4 hPa 0,0 mm 0,0 km/h (0 Bft) N 0 -4,0 C 0,0 km/h (0 Bft)
29.02.2024 01:57 -2,1 C 87 % 1021,4 hPa 0,0 mm 0,0 km/h (0 Bft) N 0 -4,0 C 0,0 km/h (0 Bft)
29.02.2024 01:56 -2,1 C 87 % 1021,4 hPa 0,0 mm 0,0 km/h (0 Bft) N 0 -4,0 C 0,0 km/h (0 Bft)
29.02.2024 01:55 -2,1 C 87 % 1021,4 hPa 0,0 mm 0,0 km/h (0 Bft) N 0 -4,0 C 0,0 km/h (0 Bft)
29.02.2024 01:54 -2,1 C 87 % 1021,5 hPa 0,0 mm 0,0 km/h (0 Bft) N 0 -4,0 C 0,0 km/h (0 Bft)
29.02.2024 01:53 -2,1 C 87 % 1021,4 hPa 0,0 mm 0,0 km/h (0 Bft) N 0 -4,0 C 0,0 km/h (0 Bft)
29.02.2024 01:52 -2,2 C 87 % 1021,4 hPa 0,0 mm 0,0 km/h (0 Bft) N 0 -4,1 C 0,0 km/h (0 Bft)
29.02.2024 01:51 -2,2 C 88 % 1021,4 hPa 0,0 mm 0,0 km/h (0 Bft) N 0 -3,9 C 0,0 km/h (0 Bft)
29.02.2024 01:50 -2,2 C 88 % 1021,4 hPa 0,0 mm 0,0 km/h (0 Bft) N 0 -3,9 C 0,0 km/h (0 Bft)
29.02.2024 01:49 -2,2 C 88 % 1021,4 hPa 0,0 mm 0,0 km/h (0 Bft) N 0 -3,9 C 0,0 km/h (0 Bft)
29.02.2024 01:48 -2,2 C 88 % 1021,5 hPa 0,0 mm 0,0 km/h (0 Bft) N 0 -3,9 C 0,0 km/h (0 Bft)
29.02.2024 01:47 -2,2 C 88 % 1021,6 hPa 0,0 mm 0,0 km/h (0 Bft) N 0 -3,9 C 0,0 km/h (0 Bft)
29.02.2024 01:46 -2,2 C 88 % 1021,6 hPa 0,0 mm 0,0 km/h (0 Bft) N 0 -3,9 C 0,0 km/h (0 Bft)
29.02.2024 01:45 -2,2 C 88 % 1021,6 hPa 0,0 mm 0,0 km/h (0 Bft) N 0 -3,9 C 0,0 km/h (0 Bft)
29.02.2024 01:44 -2,1 C 88 % 1021,6 hPa 0,0 mm 0,0 km/h (0 Bft) N 0 -3,8 C 0,0 km/h (0 Bft)
29.02.2024 01:43 -2,1 C 88 % 1021,6 hPa 0,0 mm 0,0 km/h (0 Bft) N 0 -3,8 C 0,0 km/h (0 Bft)
29.02.2024 01:42 -2,1 C 88 % 1021,7 hPa 0,0 mm 0,0 km/h (0 Bft) N 0 -3,8 C 0,0 km/h (0 Bft)
29.02.2024 01:41 -2,1 C 88 % 1021,6 hPa 0,0 mm 0,0 km/h (0 Bft) N 0 -3,8 C 0,0 km/h (0 Bft)
29.02.2024 01:40 -2,1 C 88 % 1021,6 hPa 0,0 mm 0,0 km/h (0 Bft) N 0 -3,8 C 0,0 km/h (0 Bft)
29.02.2024 01:39 -2,1 C 88 % 1021,6 hPa 0,0 mm 0,0 km/h (0 Bft) N 0 -3,8 C 0,0 km/h (0 Bft)
29.02.2024 01:38 -2,1 C 88 % 1021,6 hPa 0,0 mm 0,0 km/h (0 Bft) N 0 -3,8 C 0,0 km/h (0 Bft)
29.02.2024 01:37 -2,1 C 88 % 1021,7 hPa 0,0 mm 0,0 km/h (0 Bft) N 0 -3,8 C 0,0 km/h (0 Bft)
29.02.2024 01:36 -2,1 C 88 % 1021,7 hPa 0,0 mm 0,0 km/h (0 Bft) N 0 -3,8 C 0,0 km/h (0 Bft)
29.02.2024 01:35 -2,1 C 88 % 1021,6 hPa 0,0 mm 0,0 km/h (0 Bft) N 0 -3,8 C 0,0 km/h (0 Bft)
29.02.2024 01:34 -2,1 C 88 % 1021,6 hPa 0,0 mm 0,0 km/h (0 Bft) N 0 -3,8 C 0,0 km/h (0 Bft)
29.02.2024 01:33 -2,1 C 88 % 1021,7 hPa 0,0 mm 0,0 km/h (0 Bft) N 0 -3,8 C 0,0 km/h (0 Bft)
29.02.2024 01:32 -2,0 C 88 % 1021,7 hPa 0,0 mm 0,0 km/h (0 Bft) N 0 -3,7 C 0,0 km/h (0 Bft)
29.02.2024 01:31 -2,0 C 88 % 1021,6 hPa 0,0 mm 0,0 km/h (0 Bft) N 0 -3,7 C 0,0 km/h (0 Bft)
29.02.2024 01:30 -1,9 C 88 % 1021,6 hPa 0,0 mm 0,0 km/h (0 Bft) N 0 -3,6 C 0,0 km/h (0 Bft)
29.02.2024 01:29 -1,9 C 88 % 1021,6 hPa 0,0 mm 0,0 km/h (0 Bft) N 0 -3,6 C 0,0 km/h (0 Bft)
29.02.2024 01:28 -1,9 C 88 % 1021,7 hPa 0,0 mm 0,0 km/h (0 Bft) N 0 -3,6 C 0,0 km/h (0 Bft)
29.02.2024 01:27 -1,9 C 88 % 1021,6 hPa 0,0 mm 0,0 km/h (0 Bft) N 0 -3,6 C 0,0 km/h (0 Bft)
29.02.2024 01:26 -1,9 C 88 % 1021,6 hPa 0,0 mm 0,0 km/h (0 Bft) N 0 -3,6 C 0,0 km/h (0 Bft)
29.02.2024 01:25 -1,9 C 88 % 1021,7 hPa 0,0 mm 0,0 km/h (0 Bft) N 0 -3,6 C 0,0 km/h (0 Bft)
29.02.2024 01:24 -1,9 C 88 % 1021,6 hPa 0,0 mm 0,0 km/h (0 Bft) N 0 -3,6 C 0,0 km/h (0 Bft)
29.02.2024 01:23 -1,9 C 88 % 1021,7 hPa 0,0 mm 0,0 km/h (0 Bft) N 0 -3,6 C 0,0 km/h (0 Bft)
29.02.2024 01:22 -1,9 C 88 % 1021,6 hPa 0,0 mm 0,0 km/h (0 Bft) N 0 -3,6 C 0,0 km/h (0 Bft)
29.02.2024 01:21 -1,9 C 88 % 1021,7 hPa 0,0 mm 0,0 km/h (0 Bft) N 0 -3,6 C 0,0 km/h (0 Bft)
29.02.2024 01:20 -1,9 C 88 % 1021,7 hPa 0,0 mm 0,0 km/h (0 Bft) N 0 -3,6 C 0,0 km/h (0 Bft)
29.02.2024 01:19 -1,9 C 88 % 1021,6 hPa 0,0 mm 0,0 km/h (0 Bft) N 0 -3,6 C 0,0 km/h (0 Bft)
29.02.2024 01:18 -1,9 C 88 % 1021,7 hPa 0,0 mm 0,0 km/h (0 Bft) N 0 -3,6 C 0,0 km/h (0 Bft)
29.02.2024 01:17 -1,9 C 88 % 1021,7 hPa 0,0 mm 0,0 km/h (0 Bft) N 0 -3,6 C 0,0 km/h (0 Bft)
29.02.2024 01:16 -1,9 C 88 % 1021,6 hPa 0,0 mm 0,0 km/h (0 Bft) N 0 -3,6 C 0,0 km/h (0 Bft)
29.02.2024 01:15 -1,9 C 88 % 1021,7 hPa 0,0 mm 0,0 km/h (0 Bft) N 0 -3,6 C 0,0 km/h (0 Bft)
29.02.2024 01:14 -1,9 C 88 % 1021,7 hPa 0,0 mm 0,0 km/h (0 Bft) N 0 -3,6 C 0,0 km/h (0 Bft)
29.02.2024 01:13 -1,9 C 88 % 1021,7 hPa 0,0 mm 0,0 km/h (0 Bft) N 0 -3,6 C 0,0 km/h (0 Bft)
29.02.2024 01:12 -1,9 C 88 % 1021,7 hPa 0,0 mm 0,0 km/h (0 Bft) N 0 -3,6 C 0,0 km/h (0 Bft)
29.02.2024 01:11 -1,9 C 88 % 1021,7 hPa 0,0 mm 0,0 km/h (0 Bft) N 0 -3,6 C 0,0 km/h (0 Bft)
29.02.2024 01:10 -1,9 C 88 % 1021,7 hPa 0,0 mm 0,0 km/h (0 Bft) N 0 -3,6 C 0,0 km/h (0 Bft)
29.02.2024 01:09 -1,9 C 88 % 1021,7 hPa 0,0 mm 0,0 km/h (0 Bft) N 0 -3,6 C 0,0 km/h (0 Bft)
29.02.2024 01:08 -1,9 C 88 % 1021,6 hPa 0,0 mm 0,0 km/h (0 Bft) N 0 -3,6 C 0,0 km/h (0 Bft)
29.02.2024 01:07 -1,8 C 88 % 1021,8 hPa 0,0 mm 0,0 km/h (0 Bft) N 0 -3,5 C 0,0 km/h (0 Bft)
29.02.2024 01:06 -1,8 C 88 % 1021,8 hPa 0,0 mm 0,0 km/h (0 Bft) N 0 -3,5 C 0,0 km/h (0 Bft)
29.02.2024 01:05 -1,7 C 88 % 1021,8 hPa 0,0 mm 0,0 km/h (0 Bft) N 0 -3,4 C 0,0 km/h (0 Bft)
29.02.2024 01:04 -1,7 C 88 % 1021,8 hPa 0,0 mm 0,0 km/h (0 Bft) N 0 -3,4 C 0,0 km/h (0 Bft)
29.02.2024 01:03 -1,7 C 88 % 1021,7 hPa 0,0 mm 0,0 km/h (0 Bft) N 0 -3,4 C 0,0 km/h (0 Bft)
29.02.2024 01:02 -1,7 C 88 % 1021,8 hPa 0,0 mm 0,0 km/h (0 Bft) N 0 -3,4 C 0,0 km/h (0 Bft)
29.02.2024 01:01 -1,6 C 88 % 1021,8 hPa 0,0 mm 0,0 km/h (0 Bft) N 0 -3,3 C 0,0 km/h (0 Bft)
29.02.2024 01:00 -1,6 C 88 % 1021,8 hPa 0,0 mm 0,0 km/h (0 Bft) N 0 -3,3 C 0,0 km/h (0 Bft)
29.02.2024 00:59 -1,6 C 88 % 1021,8 hPa 0,0 mm 0,0 km/h (0 Bft) N 0 -3,3 C 0,0 km/h (0 Bft)
29.02.2024 00:58 -1,6 C 88 % 1021,7 hPa 0,0 mm 0,0 km/h (0 Bft) N 0 -3,3 C 0,0 km/h (0 Bft)
29.02.2024 00:57 -1,6 C 88 % 1021,7 hPa 0,0 mm 0,0 km/h (0 Bft) N 0 -3,3 C 0,0 km/h (0 Bft)
29.02.2024 00:56 -1,6 C 88 % 1021,7 hPa 0,0 mm 0,0 km/h (0 Bft) N 0 -3,3 C 0,0 km/h (0 Bft)
29.02.2024 00:55 -1,6 C 88 % 1021,7 hPa 0,0 mm 0,0 km/h (0 Bft) N 0 -3,3 C 0,0 km/h (0 Bft)
29.02.2024 00:54 -1,5 C 88 % 1021,7 hPa 0,0 mm 0,0 km/h (0 Bft) N 0 -3,2 C 0,0 km/h (0 Bft)
29.02.2024 00:53 -1,5 C 88 % 1021,8 hPa 0,0 mm 0,0 km/h (0 Bft) N 0 -3,2 C 0,0 km/h (0 Bft)
29.02.2024 00:52 -1,5 C 88 % 1021,8 hPa 0,0 mm 0,0 km/h (0 Bft) N 0 -3,2 C 0,0 km/h (0 Bft)
29.02.2024 00:51 -1,5 C 88 % 1021,8 hPa 0,0 mm 0,0 km/h (0 Bft) N 0 -3,2 C 0,0 km/h (0 Bft)
29.02.2024 00:50 -1,4 C 88 % 1021,8 hPa 0,0 mm 0,0 km/h (0 Bft) N 0 -3,1 C 0,0 km/h (0 Bft)
29.02.2024 00:49 -1,4 C 88 % 1021,9 hPa 0,0 mm 0,0 km/h (0 Bft) N 0 -3,1 C 0,0 km/h (0 Bft)
29.02.2024 00:48 -1,4 C 88 % 1021,9 hPa 0,0 mm 0,0 km/h (0 Bft) N 0 -3,1 C 0,0 km/h (0 Bft)
29.02.2024 00:47 -1,4 C 88 % 1021,9 hPa 0,0 mm 0,0 km/h (0 Bft) N 0 -3,1 C 0,0 km/h (0 Bft)
29.02.2024 00:46 -1,4 C 88 % 1021,8 hPa 0,0 mm 0,0 km/h (0 Bft) N 0 -3,1 C 0,0 km/h (0 Bft)
29.02.2024 00:45 -1,4 C 88 % 1021,8 hPa 0,0 mm 0,0 km/h (0 Bft) N 0 -3,1 C 0,0 km/h (0 Bft)
29.02.2024 00:44 -1,4 C 88 % 1021,8 hPa 0,0 mm 0,0 km/h (0 Bft) N 0 -3,1 C 0,0 km/h (0 Bft)
29.02.2024 00:43 -1,4 C 88 % 1021,8 hPa 0,0 mm 0,0 km/h (0 Bft) N 0 -3,1 C 0,0 km/h (0 Bft)
29.02.2024 00:42 -1,4 C 88 % 1021,9 hPa 0,0 mm 0,0 km/h (0 Bft) N 0 -3,1 C 0,0 km/h (0 Bft)
29.02.2024 00:41 -1,4 C 88 % 1021,8 hPa 0,0 mm 0,0 km/h (0 Bft) N 0 -3,1 C 0,0 km/h (0 Bft)
29.02.2024 00:40 -1,4 C 88 % 1021,9 hPa 0,0 mm 0,0 km/h (0 Bft) N 0 -3,1 C 0,0 km/h (0 Bft)
29.02.2024 00:39 -1,4 C 88 % 1021,9 hPa 0,0 mm 0,0 km/h (0 Bft) N 0 -3,1 C 0,0 km/h (0 Bft)
29.02.2024 00:38 -1,4 C 88 % 1021,9 hPa 0,0 mm 0,0 km/h (0 Bft) N 0 -3,1 C 0,0 km/h (0 Bft)
29.02.2024 00:37 -1,4 C 88 % 1021,9 hPa 0,0 mm 0,0 km/h (0 Bft) N 0 -3,1 C 0,0 km/h (0 Bft)
29.02.2024 00:36 -1,4 C 87 % 1022,0 hPa 0,0 mm 0,0 km/h (0 Bft) N 0 -3,3 C 0,0 km/h (0 Bft)
29.02.2024 00:35 -1,3 C 87 % 1022,0 hPa 0,0 mm 0,0 km/h (0 Bft) N 0 -3,2 C 0,0 km/h (0 Bft)
29.02.2024 00:34 -1,3 C 87 % 1021,9 hPa 0,0 mm 0,0 km/h (0 Bft) O-NO 67 -3,2 C 1,6 km/h (1 Bft)
29.02.2024 00:33 -1,3 C 87 % 1022,0 hPa 0,0 mm 0,0 km/h (0 Bft) N 0 -3,2 C 0,0 km/h (0 Bft)
29.02.2024 00:32 -1,3 C 87 % 1022,0 hPa 0,0 mm 0,0 km/h (0 Bft) N 0 -3,2 C 0,0 km/h (0 Bft)
29.02.2024 00:31 -1,3 C 87 % 1022,0 hPa 0,0 mm 0,0 km/h (0 Bft) N 0 -3,2 C 0,0 km/h (0 Bft)
29.02.2024 00:30 -1,3 C 87 % 1022,0 hPa 0,0 mm 0,0 km/h (0 Bft) N 0 -3,2 C 0,0 km/h (0 Bft)
29.02.2024 00:29 -1,4 C 88 % 1021,9 hPa 0,0 mm 0,0 km/h (0 Bft) N 0 -3,1 C 0,0 km/h (0 Bft)
29.02.2024 00:28 -1,4 C 88 % 1021,9 hPa 0,0 mm 0,0 km/h (0 Bft) N 0 -3,1 C 1,6 km/h (1 Bft)
29.02.2024 00:27 -1,5 C 88 % 1021,8 hPa 0,0 mm 0,0 km/h (0 Bft) N 0 -3,2 C 0,0 km/h (0 Bft)
29.02.2024 00:26 -1,5 C 88 % 1021,9 hPa 0,0 mm 0,0 km/h (0 Bft) O-NO 67 -3,2 C 1,6 km/h (1 Bft)
29.02.2024 00:25 -1,5 C 88 % 1021,9 hPa 0,0 mm 0,0 km/h (0 Bft) N 0 -3,2 C 0,0 km/h (0 Bft)
29.02.2024 00:24 -1,5 C 88 % 1021,9 hPa 0,0 mm 0,0 km/h (0 Bft) N 0 -3,2 C 0,0 km/h (0 Bft)
29.02.2024 00:23 -1,5 C 88 % 1021,9 hPa 0,0 mm 0,0 km/h (0 Bft) N 0 -3,2 C 0,0 km/h (0 Bft)
29.02.2024 00:22 -1,4 C 88 % 1021,9 hPa 0,0 mm 0,0 km/h (0 Bft) N 0 -3,1 C 0,0 km/h (0 Bft)
29.02.2024 00:21 -1,4 C 88 % 1021,9 hPa 0,0 mm 0,0 km/h (0 Bft) N 0 -3,1 C 0,0 km/h (0 Bft)
29.02.2024 00:20 -1,5 C 88 % 1021,9 hPa 0,0 mm 0,0 km/h (0 Bft) N 0 -3,2 C 0,0 km/h (0 Bft)
29.02.2024 00:19 -1,6 C 88 % 1022,0 hPa 0,0 mm 0,0 km/h (0 Bft) N 0 -3,3 C 0,0 km/h (0 Bft)
29.02.2024 00:18 -1,6 C 88 % 1021,9 hPa 0,0 mm 0,0 km/h (0 Bft) N 0 -3,3 C 0,0 km/h (0 Bft)
29.02.2024 00:17 -1,6 C 88 % 1021,9 hPa 0,0 mm 0,0 km/h (0 Bft) N 0 -3,3 C 0,0 km/h (0 Bft)
29.02.2024 00:16 -1,6 C 88 % 1021,9 hPa 0,0 mm 0,0 km/h (0 Bft) N 0 -3,3 C 0,0 km/h (0 Bft)
29.02.2024 00:15 -1,7 C 88 % 1021,9 hPa 0,0 mm 0,0 km/h (0 Bft) N 0 -3,4 C 0,0 km/h (0 Bft)
29.02.2024 00:14 -1,7 C 88 % 1021,9 hPa 0,0 mm 0,0 km/h (0 Bft) N 0 -3,4 C 0,0 km/h (0 Bft)
29.02.2024 00:13 -1,7 C 88 % 1021,9 hPa 0,0 mm 0,0 km/h (0 Bft) N 0 -3,4 C 0,0 km/h (0 Bft)
29.02.2024 00:12 -1,7 C 88 % 1021,9 hPa 0,0 mm 0,0 km/h (0 Bft) N 0 -3,4 C 0,0 km/h (0 Bft)
29.02.2024 00:11 -1,7 C 88 % 1021,9 hPa 0,0 mm 0,0 km/h (0 Bft) N 0 -3,4 C 0,0 km/h (0 Bft)
29.02.2024 00:10 -1,7 C 88 % 1021,9 hPa 0,0 mm 0,0 km/h (0 Bft) N 0 -3,4 C 0,0 km/h (0 Bft)
29.02.2024 00:09 -1,7 C 88 % 1021,8 hPa 0,0 mm 0,0 km/h (0 Bft) N 0 -3,4 C 0,0 km/h (0 Bft)
29.02.2024 00:08 -1,6 C 88 % 1021,9 hPa 0,0 mm 0,0 km/h (0 Bft) N 0 -3,3 C 0,0 km/h (0 Bft)
29.02.2024 00:07 -1,6 C 88 % 1021,9 hPa 0,0 mm 0,0 km/h (0 Bft) N 0 -3,3 C 0,0 km/h (0 Bft)
29.02.2024 00:06 -1,6 C 88 % 1021,9 hPa 0,0 mm 0,0 km/h (0 Bft) N 0 -3,3 C 0,0 km/h (0 Bft)
29.02.2024 00:05 -1,5 C 88 % 1022,0 hPa 0,0 mm 0,0 km/h (0 Bft) N 0 -3,2 C 0,0 km/h (0 Bft)
29.02.2024 00:04 -1,4 C 88 % 1022,0 hPa 0,0 mm 0,0 km/h (0 Bft) N 0 -3,1 C 0,0 km/h (0 Bft)
29.02.2024 00:03 -1,4 C 88 % 1021,9 hPa 0,0 mm 0,0 km/h (0 Bft) N 0 -3,1 C 0,0 km/h (0 Bft)
29.02.2024 00:02 -1,4 C 88 % 1022,0 hPa 0,0 mm 0,0 km/h (0 Bft) N 0 -3,1 C 0,0 km/h (0 Bft)
29.02.2024 00:01 -1,4 C 88 % 1022,0 hPa 0,0 mm 0,0 km/h (0 Bft) N 0 -3,1 C 0,0 km/h (0 Bft)
29.02.2024 00:00 -1,4 C 88 % 1022,0 hPa 0,0 mm 0,0 km/h (0 Bft) N 0 -3,1 C 0,0 km/h (0 Bft)
_ Min-Zeit 02:30 02:59 04:10 - 00:00 - - 02:30 00:00
Minimum _ -2,5 C 86 % 1020,1 hPa - 0,0 km/h (0 Bft) - - -4,4 C 0,0 km/h (0 Bft)
_ Max-Zeit 00:30 00:00 00:00 00:00 02:58 - - 00:00 03:38
Maximum _ -1,3 C 88 % 1022,0 hPa 0,0 mm 1,6 km/h
O-NO (1 Bft)
- - -3,1 C 3,2 km/h
O-NO (1 Bft)
Durchschnitt _ -2,0 C 87 % 1021,2 hPa #0,0 mm 0,0 km/h (0 Bft) O-NO - -3,8 C 0,2 km/h (0 Bft)